{"data":{"norad_id":60443,"epoch":"2026-09-21T18:59:24.470880Z","epoch_age_seconds":77242,"freshness":"FRESH","line1":"1 60443U 24144U   26264.79125545 -.00000363  00000+0  39844-6 0  9996","line2":"2 60443  53.1604  21.9697 0000990 100.0433 260.0681 15.34385354119398","mean_motion":15.34385354,"eccentricity":9.9e-5,"inclination_deg":53.1604,"raan_deg":21.9697,"arg_perigee_deg":100.0433,"mean_anomaly_deg":260.0681,"bstar":3.9844e-7,"rev_number":11939,"period_min":93.848653876033,"perigee_km":462.06952405849,"apogee_km":463.42401904525,"semimajor_km":6840.8837715519,"source":"CELESTRAK","updated_at":"2026-09-22T09:00:49.237250Z"}}